| time (UTC) | temp F | wind direction | speed MPH | gust MPH | rain 1hr in | rain 24hr in | rain mn in | humidity % | barometer mb |
| 20260906160855 | 74 | 131 | 4.0 | 9.0 | 0.00 | 0.00 | 0.00 | 75 | 1020.9 |
| 20260906160356 | 74 | 98 | 5.0 | 10.0 | 0.00 | 0.00 | 0.00 | 74 | 1020.9 |
| 20260906155856 | 74 | 99 | 4.0 | 10.0 | 0.00 | 0.00 | 0.00 | 74 | 1020.9 |
| 20260906155353 | 75 | 88 | 3.0 | 9.0 | 0.00 | 0.00 | 0.00 | 74 | 1020.9 |
| 20260906154850 | 75 | 76 | 3.0 | 9.0 | 0.00 | 0.00 | 0.00 | 74 | 1020.9 |
| 20260906154351 | 75 | 98 | 2.0 | 6.0 | 0.00 | 0.00 | 0.00 | 75 | 1020.9 |
| 20260906153853 | 75 | 161 | 4.0 | 12.0 | 0.00 | 0.00 | 0.00 | 76 | 1021.0 |
| 20260906153622 | 74 | 143 | 4.0 | 12.0 | 0.00 | 0.00 | 0.00 | 78 | 1021.1 |
| 20260906152853 | 74 | 161 | 3.0 | 11.0 | 0.00 | 0.00 | 0.00 | 77 | 1021.0 |
| 20260906152352 | 73 | 107 | 4.0 | 8.0 | 0.00 | 0.00 | 0.00 | 80 | 1021.0 |
| 20260906151852 | 73 | 103 | 5.0 | 8.0 | 0.00 | 0.00 | 0.00 | 78 | 1021.1 |
| 20260906151347 | 73 | 92 | 4.0 | 8.0 | 0.00 | 0.00 | 0.00 | 78 | 1021.1 |
| 20260906151117 | 74 | 95 | 3.0 | 8.0 | 0.00 | 0.00 | 0.00 | 79 | 1021.0 |
| 20260906150349 | 73 | 113 | 3.0 | 7.0 | 0.00 | 0.00 | 0.00 | 80 | 1021.0 |
| 20260906145847 | 73 | 134 | 3.0 | 9.0 | 0.00 | 0.00 | 0.00 | 79 | 1020.9 |
| 20260906145344 | 73 | 107 | 3.0 | 9.0 | 0.00 | 0.00 | 0.00 | 79 | 1020.8 |
| 20260906144845 | 73 | 131 | 4.0 | 8.0 | 0.00 | 0.00 | 0.00 | 81 | 1020.7 |
| 20260906144346 | 73 | 92 | 4.0 | 8.0 | 0.00 | 0.00 | 0.00 | 81 | 1020.7 |
| 20260906143839 | 72 | 115 | 4.0 | 8.0 | 0.00 | 0.00 | 0.00 | 81 | 1020.8 |
| 20260906143335 | 72 | 92 | 4.0 | 8.0 | 0.00 | 0.00 | 0.00 | 81 | 1020.8 |
| 20260906142837 | 72 | 100 | 4.0 | 8.0 | 0.00 | 0.00 | 0.00 | 82 | 1020.8 |
| 20260906142607 | 71 | 84 | 5.0 | 8.0 | 0.00 | 0.00 | 0.00 | 83 | 1020.8 |
| 20260906142106 | 72 | 89 | 4.0 | 7.0 | 0.00 | 0.00 | 0.00 | 85 | 1020.8 |
| 20260906141335 | 71 | 86 | 2.0 | 4.0 | 0.00 | 0.00 | 0.00 | 86 | 1020.8 |
| 20260906140836 | 71 | 107 | 2.0 | 4.0 | 0.00 | 0.00 | 0.00 | 85 | 1020.9 |
| 20260906140331 | 71 | 92 | 2.0 | 4.0 | 0.00 | 0.00 | 0.00 | 86 | 1021.0 |
| 20260906135835 | 71 | 98 | 1.0 | 3.0 | 0.00 | 0.00 | 0.00 | 86 | 1021.1 |
| 20260906135831 | 71 | 101 | 2.0 | 3.0 | 0.00 | 0.00 | 0.00 | 86 | 1021.0 |
| 20260906135101 | 70 | 87 | 1.0 | 4.0 | 0.00 | 0.00 | 0.00 | 87 | 1021.0 |
| 20260906134332 | 70 | 87 | 0.0 | 4.0 | 0.00 | 0.00 | 0.00 | 87 | 1021.0 |
| 20260906133832 | 69 | 81 | 1.0 | 3.0 | 0.00 | 0.00 | 0.00 | 89 | 1020.9 |
| 20260906133327 | 69 | 82 | 1.0 | 3.0 | 0.00 | 0.00 | 0.00 | 89 | 1020.8 |
| 20260906132829 | 69 | 82 | 1.0 | 3.0 | 0.00 | 0.00 | 0.00 | 91 | 1020.8 |
| 20260906132327 | 68 | 79 | 1.0 | 3.0 | 0.00 | 0.00 | 0.00 | 93 | 1020.8 |
| 20260906131827 | 67 | 79 | 0.0 | 3.0 | 0.00 | 0.00 | 0.00 | 95 | 1020.8 |
| 20260906131328 | 66 | 78 | 1.0 | 3.0 | 0.00 | 0.00 | 0.00 | 95 | 1020.8 |
| 20260906130828 | 66 | 79 | 1.0 | 4.0 | 0.00 | 0.00 | 0.00 | 97 | 1020.6 |
| 20260906130323 | 65 | 84 | 1.0 | 4.0 | 0.00 | 0.00 | 0.00 | 97 | 1020.6 |
| 20260906125825 | 65 | 84 | 1.0 | 4.0 | 0.00 | 0.00 | 0.00 | 97 | 1020.6 |
| 20260906125324 | 64 | 71 | 1.0 | 3.0 | 0.00 | 0.00 | 0.00 | 97 | 1020.6 |
| 20260906124822 | 63 | 32 | 2.0 | 4.0 | 0.00 | 0.00 | 0.00 | 97 | 1020.7 |
| 20260906124553 | 63 | 44 | 2.0 | 4.0 | 0.00 | 0.00 | 0.00 | 97 | 1020.6 |
| 20260906124054 | 62 | 20 | 2.0 | 4.0 | 0.00 | 0.00 | 0.00 | 97 | 1020.5 |
| 20260906123319 | 62 | 18 | 2.0 | 5.0 | 0.00 | 0.00 | 0.00 | 97 | 1020.5 |
| 20260906122819 | 62 | 28 | 2.0 | 5.0 | 0.00 | 0.00 | 0.00 | 97 | 1020.4 |
| 20260906122320 | 62 | 24 | 1.0 | 5.0 | 0.00 | 0.00 | 0.00 | 97 | 1020.2 |
| 20260906121819 | 61 | 11 | 1.0 | 3.0 | 0.00 | 0.00 | 0.00 | 97 | 1020.3 |
| 20260906121318 | 61 | 12 | 1.0 | 3.0 | 0.00 | 0.00 | 0.00 | 97 | 1020.3 |
| 20260906120820 | 60 | 338 | 1.0 | 3.0 | 0.00 | 0.00 | 0.00 | 96 | 1020.2 |
| 20260906120546 | 60 | 340 | 1.0 | 2.0 | 0.00 | 0.00 | 0.00 | 96 | 1020.2 |
| 20260906120044 | 60 | 340 | 1.0 | 2.0 | 0.00 | 0.00 | 0.00 | 96 | 1020.1 |
| 20260906115313 | 60 | 340 | 2.0 | 3.0 | 0.00 | 0.00 | 0.00 | 96 | 1020.1 |
| 20260906114808 | 60 | 340 | 1.0 | 3.0 | 0.00 | 0.00 | 0.00 | 96 | 1020.0 |
| 20260906114310 | 60 | 331 | 1.0 | 2.0 | 0.00 | 0.00 | 0.00 | 96 | 1019.6 |
| 20260906114306 | 60 | 337 | 1.0 | 3.0 | 0.00 | 0.00 | 0.00 | 96 | 1019.9 |
| 20260906113536 | 60 | 335 | 0.0 | 3.0 | 0.00 | 0.00 | 0.00 | 96 | 1019.5 |
| 20260906112805 | 60 | 350 | 1.0 | 3.0 | 0.00 | 0.00 | 0.00 | 96 | 1019.5 |
| 20260906112306 | 60 | 355 | 1.0 | 2.0 | 0.00 | 0.00 | 0.00 | 96 | 1019.4 |
| 20260906111800 | 60 | 24 | 1.0 | 2.0 | 0.00 | 0.00 | 0.00 | 96 | 1019.4 |
| 20260906111529 | 60 | 30 | 1.0 | 3.0 | 0.00 | 0.00 | 0.00 | 96 | 1019.3 |
| 20260906110759 | 60 | 33 | 1.0 | 3.0 | 0.00 | 0.00 | 0.00 | 96 | 1019.3 |
| 20260906110529 | 60 | 34 | 1.0 | 4.0 | 0.00 | 0.00 | 0.00 | 96 | 1019.2 |
| 20260906105756 | 60 | 33 | 1.0 | 4.0 | 0.00 | 0.01 | 0.00 | 96 | 1019.3 |
| 20260906105257 | 60 | 11 | 1.0 | 3.0 | 0.00 | 0.01 | 0.00 | 95 | 1019.2 |
| 20260906105023 | 60 | 11 | 2.0 | 4.0 | 0.00 | 0.01 | 0.00 | 95 | 1019.3 |
| 20260906104522 | 60 | 12 | 1.0 | 4.0 | 0.00 | 0.01 | 0.00 | 95 | 1019.3 |
| 20260906103751 | 60 | 37 | 2.0 | 4.0 | 0.00 | 0.01 | 0.00 | 95 | 1019.2 |
| 20260906103250 | 60 | 37 | 2.0 | 5.0 | 0.00 | 0.01 | 0.00 | 96 | 1019.2 |
| 20260906103022 | 60 | 34 | 2.0 | 5.0 | 0.00 | 0.01 | 0.00 | 95 | 1019.2 |
| 20260906102251 | 60 | 13 | 2.0 | 4.0 | 0.00 | 0.01 | 0.00 | 95 | 1019.2 |
| 20260906101747 | 60 | 15 | 1.0 | 4.0 | 0.00 | 0.01 | 0.00 | 95 | 1019.4 |
| 20260906101246 | 60 | 17 | 1.0 | 3.0 | 0.00 | 0.01 | 0.00 | 95 | 1019.3 |
| 20260906100746 | 60 | 17 | 1.0 | 3.0 | 0.00 | 0.01 | 0.00 | 95 | 1019.4 |
| 20260906100244 | 60 | 19 | 2.0 | 2.0 | 0.00 | 0.01 | 0.00 | 95 | 1019.4 |
| 20260906095741 | 60 | 19 | 2.0 | 3.0 | 0.00 | 0.01 | 0.00 | 95 | 1019.4 |
| 20260906095241 | 60 | 20 | 2.0 | 3.0 | 0.00 | 0.01 | 0.00 | 95 | 1019.3 |
| 20260906094736 | 60 | 21 | 1.0 | 3.0 | 0.00 | 0.01 | 0.00 | 95 | 1019.2 |
| 20260906094236 | 60 | 21 | 1.0 | 3.0 | 0.00 | 0.01 | 0.00 | 95 | 1019.2 |
| 20260906093734 | 60 | 21 | 0.0 | 3.0 | 0.00 | 0.01 | 0.00 | 95 | 1019.1 |
| 20260906093505 | 60 | 22 | 1.0 | 3.0 | 0.00 | 0.01 | 0.00 | 95 | 1019.1 |
| 20260906093345 | 60 | 22 | 2.0 | 5.0 | 0.00 | 0.01 | 0.00 | 95 | 1019.1 |
| 20260906092230 | 60 | 9 | 3.0 | 5.0 | 0.00 | 0.01 | 0.00 | 95 | 1019.1 |
| 20260906091727 | 60 | 11 | 2.0 | 4.0 | 0.00 | 0.01 | 0.00 | 94 | 1019.1 |
| 20260906091224 | 60 | 25 | 1.0 | 4.0 | 0.00 | 0.01 | 0.00 | 94 | 1019.1 |
| 20260906090957 | 60 | 31 | 0.0 | 3.0 | 0.00 | 0.01 | 0.00 | 94 | 1019.0 |
| 20260906090225 | 60 | 32 | 0.0 | 0.0 | 0.00 | 0.01 | 0.00 | 94 | 1018.9 |
| 20260906085722 | 60 | 11 | 0.0 | 0.0 | 0.00 | 0.01 | 0.00 | 94 | 1019.0 |
| 20260906085223 | 60 | 5 | 0.0 | 2.0 | 0.00 | 0.01 | 0.00 | 94 | 1019.0 |
| 20260906084721 | 60 | 5 | 1.0 | 2.0 | 0.00 | 0.01 | 0.00 | 94 | 1019.0 |
| 20260906084220 | 60 | 5 | 0.0 | 2.0 | 0.00 | 0.01 | 0.00 | 94 | 1019.0 |
| 20260906083721 | 60 | 5 | 0.0 | 0.0 | 0.00 | 0.01 | 0.00 | 94 | 1019.0 |
| 20260906083219 | 60 | 5 | 0.0 | 2.0 | 0.00 | 0.01 | 0.00 | 94 | 1019.0 |
| 20260906082716 | 60 | 5 | 0.0 | 2.0 | 0.00 | 0.01 | 0.00 | 94 | 1018.9 |
| 20260906082217 | 61 | 5 | 1.0 | 3.0 | 0.00 | 0.01 | 0.00 | 94 | 1018.9 |
| 20260906081714 | 61 | 5 | 1.0 | 3.0 | 0.00 | 0.01 | 0.00 | 94 | 1018.8 |
| 20260906081212 | 61 | 5 | 0.0 | 2.0 | 0.00 | 0.01 | 0.00 | 94 | 1018.8 |
| 20260906080714 | 61 | 5 | 0.0 | 2.0 | 0.00 | 0.01 | 0.00 | 94 | 1018.8 |
| 20260906080444 | 61 | 5 | 1.0 | 3.0 | 0.00 | 0.01 | 0.00 | 94 | 1018.8 |
| 20260906075710 | 61 | 9 | 2.0 | 3.0 | 0.00 | 0.01 | 0.00 | 94 | 1018.8 |
| 20260906075210 | 61 | 9 | 2.0 | 5.0 | 0.00 | 0.01 | 0.00 | 94 | 1018.9 |
| 20260906074940 | 61 | 9 | 2.0 | 5.0 | 0.00 | 0.01 | 0.00 | 94 | 1018.9 |
| 20260906074208 | 61 | 19 | 2.0 | 5.0 | 0.00 | 0.01 | 0.00 | 94 | 1019.0 |
| 20260906073711 | 61 | 340 | 3.0 | 4.0 | 0.00 | 0.01 | 0.00 | 94 | 1019.0 |
| 20260906073208 | 61 | 340 | 2.0 | 4.0 | 0.00 | 0.01 | 0.00 | 94 | 1019.1 |
| 20260906072704 | 61 | 342 | 2.0 | 3.0 | 0.00 | 0.01 | 0.00 | 94 | 1019.1 |
| 20260906072436 | 61 | 342 | 3.0 | 4.0 | 0.00 | 0.01 | 0.00 | 94 | 1019.0 |
| 20260906071929 | 61 | 344 | 2.0 | 4.0 | 0.00 | 0.01 | 0.00 | 94 | 1018.9 |
| 20260906071158 | 61 | 344 | 2.0 | 3.0 | 0.00 | 0.01 | 0.00 | 94 | 1018.9 |
| 20260906070930 | 61 | 355 | 3.0 | 4.0 | 0.00 | 0.01 | 0.00 | 94 | 1018.9 |
| 20260906070158 | 61 | 355 | 3.0 | 4.0 | 0.00 | 0.01 | 0.00 | 94 | 1018.8 |
| 20260906065930 | 61 | 0 | 3.0 | 4.0 | 0.00 | 0.01 | 0.00 | 94 | 1018.7 |
| 20260906065159 | 61 | 5 | 3.0 | 4.0 | 0.00 | 0.01 | 0.00 | 95 | 1018.7 |
| 20260906064653 | 61 | 5 | 3.0 | 4.0 | 0.00 | 0.01 | 0.00 | 95 | 1018.7 |
| 20260906064151 | 61 | 5 | 3.0 | 4.0 | 0.00 | 0.01 | 0.00 | 95 | 1018.7 |
| 20260906063649 | 61 | 21 | 2.0 | 4.0 | 0.00 | 0.01 | 0.00 | 94 | 1018.7 |
| 20260906063417 | 62 | 22 | 2.0 | 3.0 | 0.00 | 0.01 | 0.00 | 94 | 1018.6 |
| 20260906062647 | 62 | 22 | 1.0 | 3.0 | 0.00 | 0.01 | 0.00 | 94 | 1018.7 |
| 20260906062142 | 62 | 22 | 1.0 | 3.0 | 0.00 | 0.01 | 0.00 | 94 | 1018.6 |
| 20260906061914 | 62 | 22 | 1.0 | 2.0 | 0.00 | 0.01 | 0.00 | 94 | 1018.6 |
| 20260906061144 | 62 | 30 | 1.0 | 2.0 | 0.00 | 0.01 | 0.00 | 94 | 1018.6 |
| 20260906060642 | 62 | 30 | 1.0 | 2.0 | 0.00 | 0.01 | 0.00 | 94 | 1018.7 |
| 20260906060140 | 62 | 30 | 0.0 | 2.0 | 0.00 | 0.01 | 0.00 | 94 | 1018.7 |
| 20260906055642 | 62 | 30 | 1.0 | 2.0 | 0.00 | 0.01 | 0.00 | 94 | 1018.5 |
| 20260906055135 | 61 | 30 | 1.0 | 2.0 | 0.00 | 0.01 | 0.00 | 94 | 1018.5 |
| 20260906054633 | 62 | 30 | 2.0 | 2.0 | 0.00 | 0.01 | 0.00 | 93 | 1018.5 |
| 20260906054401 | 62 | 30 | 2.0 | 3.0 | 0.00 | 0.01 | 0.00 | 93 | 1018.5 |
| 20260906053628 | 62 | 30 | 2.0 | 3.0 | 0.00 | 0.01 | 0.00 | 93 | 1018.5 |
| 20260906053130 | 62 | 30 | 2.0 | 3.0 | 0.00 | 0.01 | 0.00 | 93 | 1018.4 |
| 20260906052622 | 62 | 30 | 1.0 | 3.0 | 0.00 | 0.01 | 0.00 | 93 | 1018.3 |
| 20260906052121 | 62 | 30 | 0.0 | 2.0 | 0.00 | 0.01 | 0.00 | 92 | 1018.2 |
| 20260906051618 | 62 | 30 | 0.0 | 0.0 | 0.00 | 0.01 | 0.00 | 93 | 1018.2 |
| 20260906051116 | 63 | 32 | 0.0 | 2.0 | 0.00 | 0.01 | 0.00 | 92 | 1018.0 |
| 20260906050617 | 63 | 32 | 0.0 | 2.0 | 0.00 | 0.01 | 0.00 | 93 | 1018.1 |
| 20260906050114 | 63 | 32 | 0.0 | 2.0 | 0.00 | 0.01 | 0.00 | 93 | 1018.1 |
| 20260906045614 | 63 | 32 | 0.0 | 2.0 | 0.00 | 0.01 | 0.01 | 93 | 1018.0 |
| 20260906045113 | 63 | 32 | 0.0 | 2.0 | 0.00 | 0.01 | 0.01 | 92 | 1018.0 |
| 20260906044610 | 63 | 32 | 0.0 | 1.0 | 0.00 | 0.01 | 0.01 | 92 | 1018.1 |
| 20260906044342 | 63 | 32 | 0.0 | 0.0 | 0.00 | 0.01 | 0.01 | 92 | 1018.1 |
| 20260906043609 | 63 | 34 | 0.0 | 0.0 | 0.00 | 0.01 | 0.01 | 92 | 1018.1 |
| 20260906043104 | 63 | 34 | 0.0 | 0.0 | 0.00 | 0.01 | 0.01 | 91 | 1018.1 |
| 20260906042602 | 63 | 34 | 0.0 | 0.0 | 0.00 | 0.01 | 0.01 | 91 | 1018.1 |
| 20260906042102 | 63 | 41 | 0.0 | 0.0 | 0.00 | 0.01 | 0.01 | 91 | 1018.1 |
| 20260906041603 | 63 | 41 | 0.0 | 0.0 | 0.00 | 0.01 | 0.01 | 91 | 1018.1 |
| 20260906041100 | 63 | 41 | 0.0 | 0.0 | 0.00 | 0.01 | 0.01 | 91 | 1017.9 |
| 20260906040602 | 63 | 41 | 0.0 | 0.0 | 0.00 | 0.01 | 0.01 | 90 | 1017.9 |
| 20260906040053 | 64 | 41 | 0.0 | 1.0 | 0.00 | 0.01 | 0.01 | 90 | 1017.9 |
| 20260906035553 | 64 | 41 | 0.0 | 1.0 | 0.00 | 0.01 | 0.01 | 90 | 1017.9 |
| 20260906035050 | 64 | 41 | 0.0 | 0.0 | 0.00 | 0.01 | 0.01 | 90 | 1017.9 |
| 20260906034548 | 64 | 49 | 0.0 | 0.0 | 0.00 | 0.01 | 0.01 | 90 | 1017.9 |
| 20260906034049 | 64 | 49 | 0.0 | 0.0 | 0.00 | 0.01 | 0.01 | 90 | 1017.8 |
| 20260906033544 | 64 | 50 | 0.0 | 0.0 | 0.00 | 0.01 | 0.01 | 90 | 1017.7 |
| 20260906033045 | 65 | 50 | 0.0 | 0.0 | 0.00 | 0.01 | 0.01 | 90 | 1017.8 |
| 20260906032542 | 65 | 50 | 0.0 | 1.0 | 0.00 | 0.01 | 0.01 | 89 | 1017.7 |
| 20260906032043 | 65 | 50 | 0.0 | 1.0 | 0.00 | 0.01 | 0.01 | 89 | 1017.7 |
| 20260906031539 | 66 | 54 | 0.0 | 0.0 | 0.00 | 0.01 | 0.01 | 89 | 1017.6 |
| 20260906031040 | 66 | 54 | 0.0 | 0.0 | 0.00 | 0.01 | 0.01 | 88 | 1017.6 |
| 20260906030539 | 66 | 54 | 0.0 | 0.0 | 0.00 | 0.01 | 0.01 | 88 | 1017.7 |
| 20260906030037 | 67 | 54 | 0.0 | 0.0 | 0.00 | 0.01 | 0.01 | 88 | 1017.6 |
| 20260906025539 | 67 | 54 | 0.0 | 0.0 | 0.00 | 0.01 | 0.01 | 87 | 1017.6 |
| 20260906025036 | 67 | 54 | 0.0 | 0.0 | 0.00 | 0.01 | 0.01 | 86 | 1017.6 |
| 20260906024534 | 67 | 54 | 0.0 | 0.0 | 0.00 | 0.01 | 0.01 | 86 | 1017.6 |
| 20260906024035 | 67 | 54 | 0.0 | 1.0 | 0.00 | 0.01 | 0.01 | 85 | 1017.7 |
| 20260906023534 | 67 | 54 | 0.0 | 2.0 | 0.00 | 0.01 | 0.01 | 84 | 1017.7 |
| 20260906023302 | 67 | 54 | 0.0 | 2.0 | 0.00 | 0.01 | 0.01 | 84 | 1017.7 |
| 20260906022532 | 67 | 54 | 0.0 | 2.0 | 0.00 | 0.01 | 0.01 | 84 | 1017.7 |
| 20260906022031 | 68 | 54 | 0.0 | 2.0 | 0.00 | 0.01 | 0.01 | 83 | 1017.7 |
| 20260906021802 | 68 | 54 | 1.0 | 3.0 | 0.00 | 0.01 | 0.01 | 83 | 1017.6 |
| 20260906021028 | 68 | 54 | 1.0 | 3.0 | 0.00 | 0.01 | 0.01 | 84 | 1017.6 |
| 20260906020531 | 68 | 53 | 1.0 | 2.0 | 0.00 | 0.01 | 0.01 | 84 | 1017.7 |
| 20260906020527 | 68 | 53 | 1.0 | 2.0 | 0.00 | 0.01 | 0.01 | 84 | 1017.7 |
| 20260906015526 | 69 | 53 | 1.0 | 2.0 | 0.00 | 0.01 | 0.01 | 84 | 1017.6 |
| 20260906015257 | 69 | 53 | 1.0 | 3.0 | 0.00 | 0.01 | 0.01 | 83 | 1017.5 |
| 20260906014527 | 69 | 53 | 1.0 | 3.0 | 0.00 | 0.01 | 0.01 | 83 | 1017.6 |
| 20260906014022 | 69 | 51 | 1.0 | 4.0 | 0.00 | 0.01 | 0.01 | 84 | 1017.6 |
| 20260906013523 | 69 | 51 | 1.0 | 4.0 | 0.00 | 0.01 | 0.01 | 83 | 1017.5 |
| 20260906013254 | 69 | 51 | 1.0 | 3.0 | 0.00 | 0.01 | 0.01 | 84 | 1017.4 |
| 20260906012522 | 70 | 50 | 1.0 | 3.0 | 0.00 | 0.01 | 0.01 | 84 | 1017.4 |
| 20260906012021 | 70 | 50 | 2.0 | 4.0 | 0.00 | 0.01 | 0.01 | 84 | 1017.4 |
| 20260906011522 | 70 | 53 | 1.0 | 4.0 | 0.00 | 0.01 | 0.01 | 83 | 1017.4 |
| 20260906011017 | 70 | 37 | 0.0 | 3.0 | 0.00 | 0.01 | 0.01 | 83 | 1017.4 |
| 20260906010519 | 70 | 63 | 1.0 | 3.0 | 0.00 | 0.01 | 0.01 | 83 | 1017.4 |
| 20260906010250 | 71 | 63 | 1.0 | 3.0 | 0.00 | 0.01 | 0.01 | 83 | 1017.3 |
| 20260906005518 | 71 | 63 | 1.0 | 2.0 | 0.00 | 0.01 | 0.01 | 82 | 1017.2 |
| 20260906005249 | 71 | 63 | 1.0 | 3.0 | 0.00 | 0.01 | 0.01 | 82 | 1017.1 |
| 20260906004517 | 71 | 63 | 1.0 | 3.0 | 0.00 | 0.01 | 0.01 | 82 | 1017.1 |
| 20260906004251 | 71 | 64 | 2.0 | 4.0 | 0.00 | 0.01 | 0.01 | 82 | 1017.1 |
| 20260906003751 | 71 | 64 | 2.0 | 5.0 | 0.00 | 0.01 | 0.01 | 81 | 1017.0 |
| 20260906003018 | 72 | 62 | 2.0 | 5.0 | 0.00 | 0.01 | 0.01 | 81 | 1017.0 |
| 20260906002519 | 72 | 68 | 2.0 | 4.0 | 0.00 | 0.01 | 0.01 | 81 | 1017.0 |
| 20260906002019 | 72 | 67 | 2.0 | 4.0 | 0.00 | 0.01 | 0.01 | 81 | 1017.0 |
| 20260906001513 | 73 | 46 | 1.0 | 4.0 | 0.00 | 0.01 | 0.01 | 81 | 1017.0 |
| 20260906001013 | 73 | 46 | 1.0 | 5.0 | 0.00 | 0.01 | 0.01 | 80 | 1017.1 |
| 20260906000514 | 73 | 42 | 2.0 | 5.0 | 0.00 | 0.01 | 0.01 | 79 | 1017.1 |
| 20260906000013 | 73 | 47 | 2.0 | 5.0 | 0.00 | 0.01 | 0.01 | 79 | 1017.0 |
| 20260905235515 | 74 | 24 | 3.0 | 7.0 | 0.00 | 0.01 | 0.01 | 79 | 1017.0 |
| 20260905235245 | 74 | 58 | 3.0 | 7.0 | 0.00 | 0.01 | 0.01 | 79 | 1017.0 |
| 20260905234514 | 74 | 355 | 2.0 | 7.0 | 0.00 | 0.01 | 0.01 | 78 | 1017.0 |
| 20260905234012 | 74 | 32 | 2.0 | 4.0 | 0.00 | 0.01 | 0.01 | 78 | 1016.9 |
| 20260905233512 | 74 | 50 | 2.0 | 10.0 | 0.00 | 0.01 | 0.01 | 78 | 1016.9 |
| 20260905233007 | 74 | 18 | 3.0 | 10.0 | 0.00 | 0.01 | 0.01 | 77 | 1017.0 |
| 20260905232508 | 75 | 74 | 3.0 | 9.0 | 0.00 | 0.01 | 0.01 | 77 | 1017.0 |
| 20260905232008 | 75 | 40 | 4.0 | 9.0 | 0.00 | 0.01 | 0.01 | 77 | 1017.2 |
| 20260905231508 | 75 | 15 | 4.0 | 9.0 | 0.00 | 0.01 | 0.01 | 76 | 1017.2 |
| 20260905231007 | 75 | 56 | 5.0 | 9.0 | 0.00 | 0.01 | 0.01 | 76 | 1017.2 |
| 20260905230508 | 75 | 11 | 5.0 | 9.0 | 0.00 | 0.01 | 0.01 | 76 | 1017.1 |
| 20260905230007 | 75 | 23 | 4.0 | 9.0 | 0.00 | 0.01 | 0.01 | 77 | 1017.2 |
| 20260905225501 | 75 | 35 | 5.0 | 14.0 | 0.00 | 0.01 | 0.01 | 77 | 1017.1 |
| 20260905225002 | 75 | 27 | 5.0 | 14.0 | 0.00 | 0.01 | 0.01 | 77 | 1017.0 |
| 20260905224502 | 75 | 30 | 3.0 | 9.0 | 0.00 | 0.01 | 0.01 | 77 | 1017.0 |
| 20260905224002 | 75 | 355 | 3.0 | 8.0 | 0.00 | 0.01 | 0.01 | 77 | 1017.0 |
| 20260905223503 | 75 | 106 | 3.0 | 9.0 | 0.00 | 0.01 | 0.01 | 77 | 1016.8 |
| 20260905223002 | 75 | 5 | 4.0 | 10.0 | 0.00 | 0.01 | 0.01 | 78 | 1016.8 |
| 20260905222504 | 75 | 0 | 5.0 | 10.0 | 0.00 | 0.01 | 0.01 | 78 | 1016.8 |
| 20260905221956 | 75 | 55 | 4.0 | 10.0 | 0.00 | 0.01 | 0.01 | 78 | 1016.8 |
| 20260905221453 | 75 | 30 | 4.0 | 8.0 | 0.00 | 0.01 | 0.01 | 78 | 1016.8 |
| 20260905220954 | 75 | 81 | 4.0 | 12.0 | 0.00 | 0.01 | 0.01 | 78 | 1016.8 |
| 20260905220454 | 75 | 84 | 4.0 | 12.0 | 0.00 | 0.01 | 0.01 | 78 | 1016.9 |
| 20260905215954 | 75 | 38 | 4.0 | 9.0 | 0.00 | 0.01 | 0.01 | 79 | 1016.9 |
| 20260905215454 | 75 | 50 | 5.0 | 10.0 | 0.00 | 0.01 | 0.01 | 80 | 1016.9 |
| 20260905214951 | 75 | 0 | 4.0 | 10.0 | 0.00 | 0.01 | 0.01 | 80 | 1016.9 |
| 20260905214455 | 74 | 65 | 3.0 | 8.0 | 0.00 | 0.01 | 0.01 | 82 | 1017.0 |
| 20260905214450 | 75 | 77 | 3.0 | 9.0 | 0.00 | 0.01 | 0.01 | 82 | 1017.0 |
| 20260905213447 | 74 | 61 | 3.0 | 8.0 | 0.00 | 0.01 | 0.01 | 82 | 1017.0 |
| 20260905212948 | 74 | 5 | 3.0 | 9.0 | 0.00 | 0.01 | 0.01 | 83 | 1017.1 |
| 20260905212447 | 74 | 32 | 3.0 | 9.0 | 0.00 | 0.01 | 0.01 | 83 | 1017.0 |
| 20260905212216 | 74 | 68 | 2.0 | 8.0 | 0.00 | 0.01 | 0.01 | 83 | 1017.1 |
| 20260905211446 | 74 | 80 | 2.0 | 5.0 | 0.00 | 0.01 | 0.01 | 84 | 1017.1 |
| 20260905210943 | 74 | 40 | 3.0 | 7.0 | 0.00 | 0.01 | 0.01 | 84 | 1017.2 |
| 20260905210443 | 74 | 17 | 3.0 | 7.0 | 0.00 | 0.01 | 0.01 | 84 | 1017.2 |
| 20260905205941 | 74 | 53 | 3.0 | 8.0 | 0.00 | 0.01 | 0.01 | 84 | 1017.1 |
| 20260905205440 | 74 | 27 | 3.0 | 8.0 | 0.00 | 0.01 | 0.01 | 83 | 1017.1 |
| 20260905204939 | 74 | 79 | 3.0 | 8.0 | 0.00 | 0.01 | 0.01 | 83 | 1017.0 |
| 20260905204435 | 74 | 37 | 3.0 | 8.0 | 0.00 | 0.01 | 0.01 | 83 | 1017.0 |
| 20260905203933 | 74 | 38 | 2.0 | 7.0 | 0.00 | 0.01 | 0.01 | 84 | 1016.9 |
| 20260905203431 | 74 | 60 | 2.0 | 6.0 | 0.00 | 0.01 | 0.01 | 84 | 1016.9 |
| 20260905202927 | 74 | 53 | 3.0 | 6.0 | 0.00 | 0.01 | 0.01 | 84 | 1016.9 |
| 20260905202428 | 74 | 37 | 4.0 | 9.0 | 0.00 | 0.01 | 0.01 | 84 | 1016.9 |
| 20260905201921 | 74 | 35 | 4.0 | 9.0 | 0.00 | 0.01 | 0.01 | 84 | 1016.9 |
| 20260905201422 | 74 | 0 | 3.0 | 8.0 | 0.00 | 0.01 | 0.01 | 84 | 1016.9 |
| 20260905200921 | 74 | 66 | 3.0 | 8.0 | 0.00 | 0.01 | 0.01 | 85 | 1016.9 |
| 20260905200421 | 74 | 22 | 2.0 | 7.0 | 0.00 | 0.01 | 0.01 | 85 | 1016.9 |
| 20260905195922 | 74 | 72 | 2.0 | 6.0 | 0.00 | 0.01 | 0.01 | 85 | 1017.0 |
| 20260905195421 | 74 | 26 | 3.0 | 6.0 | 0.00 | 0.01 | 0.01 | 85 | 1017.0 |
| 20260905194915 | 74 | 28 | 3.0 | 6.0 | 0.00 | 0.01 | 0.01 | 85 | 1017.0 |
| 20260905194415 | 74 | 14 | 3.0 | 8.0 | 0.00 | 0.01 | 0.01 | 85 | 1017.0 |
| 20260905193915 | 74 | 19 | 4.0 | 9.0 | 0.00 | 0.01 | 0.01 | 84 | 1017.0 |
| 20260905193646 | 74 | 50 | 4.0 | 9.0 | 0.00 | 0.01 | 0.01 | 85 | 1017.0 |
| 20260905192915 | 74 | 28 | 3.0 | 8.0 | 0.00 | 0.01 | 0.01 | 86 | 1017.1 |
| 20260905192417 | 74 | 33 | 2.0 | 6.0 | 0.00 | 0.01 | 0.01 | 86 | 1017.1 |
| 20260905191911 | 74 | 101 | 3.0 | 6.0 | 0.00 | 0.01 | 0.01 | 87 | 1017.0 |
| 20260905191410 | 74 | 40 | 3.0 | 6.0 | 0.00 | 0.01 | 0.01 | 87 | 1017.0 |
| 20260905190906 | 74 | 351 | 3.0 | 6.0 | 0.00 | 0.01 | 0.01 | 88 | 1017.1 |
| 20260905190403 | 73 | 86 | 3.0 | 7.0 | 0.00 | 0.01 | 0.01 | 88 | 1017.1 |
| 20260905190135 | 73 | 47 | 3.0 | 7.0 | 0.00 | 0.01 | 0.01 | 88 | 1017.1 |
| 20260905185359 | 73 | 76 | 2.0 | 7.0 | 0.00 | 0.01 | 0.01 | 88 | 1017.0 |
| 20260905184900 | 73 | 28 | 3.0 | 8.0 | 0.00 | 0.01 | 0.01 | 88 | 1017.2 |
| 20260905184358 | 73 | 52 | 4.0 | 8.0 | 0.00 | 0.01 | 0.01 | 88 | 1017.2 |
| 20260905183858 | 73 | 34 | 4.0 | 9.0 | 0.00 | 0.01 | 0.01 | 87 | 1017.2 |
| 20260905183357 | 73 | 12 | 4.0 | 9.0 | 0.00 | 0.01 | 0.01 | 88 | 1017.3 |
| 20260905182858 | 73 | 34 | 3.0 | 8.0 | 0.00 | 0.01 | 0.01 | 87 | 1017.3 |
| 20260905182354 | 73 | 46 | 3.0 | 8.0 | 0.00 | 0.01 | 0.01 | 87 | 1017.3 |
| 20260905181853 | 73 | 51 | 4.0 | 8.0 | 0.00 | 0.01 | 0.01 | 88 | 1017.2 |
| 20260905181354 | 74 | 98 | 5.0 | 8.0 | 0.00 | 0.01 | 0.01 | 87 | 1017.1 |
| 20260905180854 | 74 | 100 | 5.0 | 9.0 | 0.00 | 0.01 | 0.01 | 86 | 1017.1 |
| 20260905180351 | 74 | 84 | 4.0 | 9.0 | 0.00 | 0.01 | 0.01 | 87 | 1017.1 |
| 20260905175854 | 74 | 74 | 4.0 | 9.0 | 0.00 | 0.01 | 0.01 | 87 | 1017.0 |
| 20260905175346 | 74 | 49 | 4.0 | 9.0 | 0.00 | 0.01 | 0.01 | 87 | 1017.1 |
| 20260905174845 | 74 | 36 | 4.0 | 9.0 | 0.00 | 0.01 | 0.01 | 88 | 1017.1 |
| 20260905174346 | 73 | 64 | 5.0 | 9.0 | 0.00 | 0.01 | 0.01 | 87 | 1017.1 |
| 20260905173845 | 73 | 99 | 4.0 | 9.0 | 0.00 | 0.01 | 0.01 | 87 | 1017.1 |
| 20260905173345 | 73 | 90 | 4.0 | 9.0 | 0.00 | 0.01 | 0.01 | 88 | 1017.1 |
| 20260905172846 | 73 | 47 | 4.0 | 9.0 | 0.00 | 0.01 | 0.01 | 88 | 1017.1 |
| 20260905172612 | 73 | 69 | 5.0 | 10.0 | 0.00 | 0.01 | 0.01 | 88 | 1017.2 |
| 20260905171839 | 73 | 40 | 4.0 | 10.0 | 0.00 | 0.01 | 0.01 | 88 | 1017.2 |
| 20260905171339 | 73 | 61 | 4.0 | 8.0 | 0.00 | 0.01 | 0.01 | 89 | 1017.2 |
| 20260905170838 | 73 | 72 | 4.0 | 9.0 | 0.00 | 0.01 | 0.01 | 89 | 1017.2 |
| 20260905170337 | 73 | 63 | 3.0 | 9.0 | 0.00 | 0.01 | 0.01 | 89 | 1017.2 |
| 20260905165838 | 73 | 46 | 2.0 | 8.0 | 0.00 | 0.01 | 0.01 | 90 | 1017.4 |
| 20260905165336 | 72 | 5 | 3.0 | 9.0 | 0.00 | 0.01 | 0.01 | 90 | 1017.4 |
| 20260905165107 | 72 | 44 | 4.0 | 9.0 | 0.00 | 0.01 | 0.01 | 90 | 1017.5 |
| 20260905164335 | 72 | 62 | 4.0 | 11.0 | 0.00 | 0.01 | 0.01 | 91 | 1017.4 |
| 20260905163837 | 72 | 30 | 3.0 | 11.0 | 0.00 | 0.01 | 0.01 | 91 | 1017.4 |
| 20260905163335 | 72 | 94 | 3.0 | 9.0 | 0.00 | 0.01 | 0.01 | 91 | 1017.2 |
| 20260905162833 | 72 | 39 | 3.0 | 9.0 | 0.00 | 0.01 | 0.01 | 91 | 1017.2 |
| 20260905162334 | 72 | 46 | 3.0 | 6.0 | 0.00 | 0.01 | 0.01 | 92 | 1017.1 |
| 20260905161828 | 72 | 49 | 3.0 | 6.0 | 0.00 | 0.01 | 0.01 | 92 | 1017.3 |
| 20260905161330 | 72 | 77 | 3.0 | 7.0 | 0.00 | 0.01 | 0.01 | 92 | 1017.3 |